[[{"header":{"parameterUnit":"m.s-1","parameterCategory":1,"la1":30.2991,"la2":30.254,"lo1":-89.0895,"lo2":-89.0444,"dy":0.0017,"dx":0.0017,"nx":28,"ny":28,"refTime":"2025-01-08T03:00:00:Z","depth":0,"parameterNumber":2,"parameterNumberName":"U-component_of_WINDS"},"data":[0,0,0,0,0,0,0,0,0,0,0,0,0,0,0,0,0,0,0,0,0,0,0,0,0,0,0,0,0,0,0,0,0,0,0,0,0,0,0,0,0,0,0,0,0,0,0,0,0,0,0,0,0,0,0,0,0,0,-0.9502,-0.9503,0,-0.9591,-0.9592,-0.9593,-0.9552,-0.955,-0.9548,-0.9546,-0.964,-0.9644,-0.9649,0,0,0,0,0,0,0,0,0,0,0,0,0,-0.9299,-0.9303,-0.9502,-0.9503,-0.9504,-0.9591,-0.9592,-0.9593,-0.9553,-0.955,-0.9547,-0.9545,-0.9639,-0.9644,-0.9649,0,0,0,0,0,0,0,0,0,0,0,0,0,-0.9388,-0.9304,-0.9501,-0.9494,-0.9494,-0.959,-0.9592,-0.9593,-0.9553,-0.955,-0.9547,-0.9543,-0.9637,-0.9643,-0.965,-0.976,0,0,-0.9671,-0.9674,0,0,0,0,0,0,0,0,-0.9383,-0.9395,-0.9494,-0.9495,-0.9495,-0.9557,-0.9555,-0.9649,-0.9554,-0.9531,-0.9546,-0.9542,-0.9615,-0.9624,-0.9648,-0.9764,-0.9768,-0.9672,-0.9676,-0.9679,-0.9681,0,0,0,0,0,0,0,-0.9376,-0.9391,-0.9537,-0.9496,-0.9496,-0.9487,-0.9496,-0.9573,-0.9591,-0.9533,-0.953,-0.9541,-0.9615,-0.9641,-0.965,-0.9769,-0.9672,-0.9678,-0.9682,-0.9685,-0.998,-0.9983,0,0,0,0,0,0,-0.937,-0.9386,-0.9534,-0.954,-0.9429,-0.9493,-0.9503,-0.9541,-0.959,-0.9594,-0.9544,-0.9539,-0.9631,-0.9642,-0.9653,-0.9785,-0.9679,-0.9685,-0.9689,-0.9976,-0.998,-0.9984,0,0,0,0,0,0,-0.9366,-0.9384,-0.9531,-0.9462,-0.948,-0.95,-0.9543,-0.9544,-0.957,-0.9598,-0.9601,-0.9567,-0.9629,-0.9643,-0.9733,-0.9788,-0.9688,-0.9695,-0.9971,-0.9977,-0.9982,-1.0049,0,0,0,0,0,0,-0.936,-0.9382,-0.9424,-0.9463,-0.9484,-0.9609,-0.9546,-0.9548,-0.9582,-0.9576,-0.9621,-0.9625,-0.9627,-0.9723,-0.974,-0.9795,-0.97,-0.9967,-0.9974,-0.9981,-1.0042,-1.0057,-1.0069,0,0,0,0,0,-0.9353,-0.944,-0.9426,-0.9444,-0.9536,-0.9612,-0.9624,-0.9624,-0.9586,-0.9629,-0.9646,-0.9624,-0.9778,-0.9733,-0.9751,-0.981,-0.9963,-0.9972,-0.998,-1.0037,-1.0054,-1.0068,0,0,0,0,0,0,-0.9408,-0.9445,-0.943,-0.9532,-0.9569,-0.9605,-0.9659,-0.9642,-0.9692,-0.9684,-0.9683,-0.9693,-0.9786,-0.9806,-0.9755,-0.9918,-0.9865,-0.9878,-0.9902,-0.9918,-0.9931,-0.9926,-0.9706,0,0,0,0,0,-0.9431,-0.9489,-0.9519,-0.9606,-0.9625,-0.9639,-0.9672,-0.9668,-0.9707,-0.9723,-0.9747,-0.9786,-0.9843,-0.9882,-0.9936,-1.0044,-1.0054,-1.0093,-1.0106,-1.0117,-1.0128,-1.0188,-1.0206,-1.0012,-1.0012,-1.0012,0,0,-0.9482,-0.9509,-0.9546,-0.9618,-0.9646,-0.9707,-0.9652,-0.9719,-0.9765,-0.9733,-0.982,-0.9839,-0.9882,-0.9982,-1.0027,-1.0002,-1.0184,-1.0127,-1.0136,-1.0142,-1.0198,-1.0217,-1.0233,-1.0017,-1.0016,-1.0015,0,0,-0.9604,-0.963,-0.9706,-0.9735,-0.9778,-0.9786,-0.9804,-0.9842,-0.9853,-0.994,-0.9917,-0.9971,-1.007,-1.0102,-1.0131,-1.0264,-1.0246,-1.0281,-1.0351,-1.0409,-1.0424,-1.0438,-1.0487,-1.0504,-1.0292,-1.0293,-1.0293,0,-0.9662,-0.9752,-0.9747,-0.9816,-0.9848,-0.9821,-0.9898,-0.9926,-0.9985,-1.0009,-0.9979,-1.0101,-1.0129,-1.0236,-1.0268,-1.0292,-1.0313,-1.0278,-1.0422,-1.0436,-1.0448,-1.0495,-1.0513,-1.0297,-1.0296,-1.0296,-1.0295,0,-0.9821,-0.9884,-0.994,-0.9996,-1.0035,-1.0107,-1.0114,-1.0154,-1.0146,-1.0157,-1.0245,-1.0277,-1.0337,-1.0361,-1.0355,-1.0468,-1.0451,-1.0421,-1.0369,-1.0471,-1.0515,-1.0533,-1.0303,-1.0301,-1.03,-1.0299,0,0,-0.9984,-1.0035,-1.0056,-1.0081,-1.0126,-1.0175,-1.0245,-1.0303,-1.0337,-1.0378,-1.0439,-1.0521,-1.0494,-1.0527,-1.0524,-1.0574,-1.0679,-1.0539,-1.054,-1.0566,-1.0806,-1.083,-1.085,-1.0666,-1.0669,-1.0672,-1.0803,0,-1.0112,-1.0235,-1.0232,-1.0348,-1.0406,-1.038,-1.0442,-1.0476,-1.0488,-1.0539,-1.0552,-1.0612,-1.0571,-1.0591,-1.0639,-1.0656,-1.0728,-1.0646,-1.0723,-1.0726,-1.0716,-1.0873,-1.0898,-1.1021,-1.082,-1.0823,-1.0825,0,-1.0278,-1.0323,-1.0444,-1.0479,-1.0504,-1.0559,-1.0612,-1.0661,-1.0699,-1.0704,-1.074,-1.0728,-1.0801,-1.0744,-1.0844,-1.0789,-1.082,-1.0833,-1.0837,-1.0847,-1.0784,-1.0889,-1.106,-1.108,-1.0852,-1.085,-1.0848,0,-1.0387,-1.0478,-1.0562,-1.0584,-1.0627,-1.0667,-1.0686,-1.0721,-1.0755,-1.0801,-1.0823,-1.0877,-1.0907,-1.0949,-1.0952,-1.091,-1.1054,-1.0997,-1.1061,-1.1062,-1.1095,-1.1094,-1.1277,-1.1111,-1.1111,-1.1111,-1.111,0,-1.0531,-1.0607,-1.0611,-1.0664,-1.0747,-1.0743,-1.0826,-1.0842,-1.0873,-1.0928,-1.0907,-1.096,-1.096,-1.1013,-1.1016,-1.1099,-1.1112,-1.1119,-1.112,-1.1123,-1.1122,-1.1145,-1.1138,-1.1116,-1.1115,-1.1114,-1.1113,0,-1.0668,-1.0674,-1.0765,-1.0797,-1.0806,-1.0867,-1.0895,-1.0945,-1.0953,-1.1024,-1.104,-1.1055,-1.1116,-1.1122,-1.1195,-1.1196,-1.1298,-1.1287,-1.1285,-1.1284,-1.1349,-1.1343,-1.1555,-1.1583,-1.1397,-1.1399,-1.14,0,-1.0761,-1.0819,-1.0856,-1.0891,-1.0913,-1.097,-1.1005,-1.1001,-1.1039,-1.1085,-1.113,-1.1189,-1.1237,-1.1337,-1.1354,-1.1409,-1.1402,-1.1472,-1.141,-1.1411,-1.1405,-1.1402,-1.1409,-1.1485,-1.1487,-1.1488,-1.149,0,-1.0926,-1.0926,-1.0976,-1.1028,-1.107,-1.111,-1.1148,-1.1178,-1.118,-1.1222,-1.1285,-1.1321,-1.1394,-1.1454,-1.1507,-1.1528,-1.151,-1.1508,-1.1526,-1.1532,-1.1528,-1.1533,-1.132,-1.1504,-1.1503,-1.1502,-1.1501,-1.15,-1.1046,-1.1096,-1.113,-1.1187,-1.1214,-1.125,-1.1298,-1.1312,-1.1364,-1.1423,-1.1417,-1.1486,-1.1522,-1.1592,-1.1616,-1.1671,-1.1647,-1.1673,-1.168,-1.1687,-1.1695,-1.1517,-1.168,-1.168,-1.1679,-1.1679,-1.1679,0,-1.1211,-1.1231,-1.1283,-1.1337,-1.1381,-1.1358,-1.1398,-1.1438,-1.1498,-1.1533,-1.1579,-1.1651,-1.1708,-1.1729,-1.1785,-1.1824,-1.1817,-1.1839,-1.1838,-1.1843,-1.1712,-1.1691,-1.1844,-1.1844,-1.1844,-1.1844,-1.1844,-1.1844,-1.1303,-1.1386,-1.139,-1.1487,-1.1506,-1.1573,-1.1598,-1.1631,-1.1658,-1.1739,-1.1786,-1.1798,-1.1828,-1.1885,-1.1937,-1.1941,-1.1964,-1.199,-1.1991,-1.1869,-1.1852,-1.1836,-1.1817,-1.1994,-1.1994,-1.2118,-1.2119,-1.212]},{"header":{"parameterUnit":"m.s-1","parameterCategory":1,"la1":30.2991,"la2":30.254,"lo1":-89.0895,"lo2":-89.0444,"dy":0.0017,"dx":0.0017,"nx":28,"ny":28,"refTime":"2025-01-08T03:00:00:Z","depth":0,"parameterNumber":3,"parameterNumberName":"V-component_of_WINDS"},"data":[0,0,0,0,0,0,0,0,0,0,0,0,0,0,0,0,0,0,0,0,0,0,0,0,0,0,0,0,0,0,0,0,0,0,0,0,0,0,0,0,0,0,0,0,0,0,0,0,0,0,0,0,0,0,0,0,0,0,-6.6181,-6.6183,0,-6.6313,-6.6314,-6.6316,-6.6236,-6.6232,-6.6228,-6.6225,-6.6355,-6.6361,-6.6368,0,0,0,0,0,0,0,0,0,0,0,0,0,-6.5855,-6.5862,-6.6181,-6.6183,-6.6185,-6.6313,-6.6314,-6.6316,-6.6237,-6.6232,-6.6227,-6.6223,-6.6352,-6.636,-6.6369,0,0,0,0,0,0,0,0,0,0,0,0,0,-6.5993,-6.5864,-6.6181,-6.616,-6.616,-6.6312,-6.6314,-6.6317,-6.6238,-6.6232,-6.6226,-6.6221,-6.6349,-6.636,-6.637,-6.6548,0,0,-6.6402,-6.6407,0,0,0,0,0,0,0,0,-6.5985,-6.6005,-6.6162,-6.6162,-6.6162,-6.6252,-6.6247,-6.6394,-6.6239,-6.6208,-6.6225,-6.6218,-6.6325,-6.6337,-6.6374,-6.6554,-6.656,-6.6403,-6.6409,-6.6414,-6.6417,0,0,0,0,0,0,0,-6.5976,-6.5999,-6.6233,-6.6164,-6.6164,-6.6143,-6.6156,-6.6274,-6.6296,-6.621,-6.6205,-6.6222,-6.6324,-6.6364,-6.6376,-6.6562,-6.6403,-6.6412,-6.6418,-6.6422,-6.6893,-6.6899,0,0,0,0,0,0,-6.5968,-6.5991,-6.6229,-6.6237,-6.6058,-6.6153,-6.6168,-6.6229,-6.6295,-6.63,-6.6226,-6.6218,-6.6349,-6.6364,-6.6381,-6.6593,-6.6414,-6.6424,-6.643,-6.6887,-6.6894,-6.6901,0,0,0,0,0,0,-6.5962,-6.599,-6.6223,-6.6113,-6.6141,-6.6165,-6.6234,-6.6234,-6.6275,-6.6307,-6.631,-6.6264,-6.6345,-6.6366,-6.6507,-6.6596,-6.6428,-6.6438,-6.6879,-6.6889,-6.6898,-6.7019,0,0,0,0,0,0,-6.5953,-6.5988,-6.6058,-6.6115,-6.6147,-6.635,-6.6239,-6.6241,-6.6294,-6.6283,-6.6343,-6.6348,-6.6342,-6.6492,-6.6518,-6.6607,-6.6446,-6.6871,-6.6884,-6.6895,-6.7007,-6.7031,-6.7052,0,0,0,0,0,-6.5941,-6.6086,-6.6062,-6.6091,-6.6235,-6.6356,-6.6374,-6.6366,-6.6301,-6.637,-6.6391,-6.6346,-6.6582,-6.6507,-6.6535,-6.663,-6.6866,-6.688,-6.6894,-6.6997,-6.7026,-6.7051,0,0,0,0,0,0,-6.6038,-6.6093,-6.6067,-6.6235,-6.6292,-6.6342,-6.6429,-6.6397,-6.6472,-6.6459,-6.6444,-6.6458,-6.6605,-6.6631,-6.6547,-6.6804,-6.6713,-6.6734,-6.6782,-6.6811,-6.6833,-6.6823,-6.6455,0,0,0,0,0,-6.6079,-6.6174,-6.6217,-6.6361,-6.639,-6.6405,-6.6457,-6.6446,-6.6503,-6.6526,-6.6557,-6.6612,-6.6699,-6.6756,-6.6837,-6.701,-6.7021,-6.7089,-6.7111,-6.7129,-6.7147,-6.7238,-6.7268,-6.6947,-6.6947,-6.6946,0,0,-6.6164,-6.6206,-6.6267,-6.6381,-6.6423,-6.652,-6.6426,-6.6532,-6.6603,-6.6542,-6.6677,-6.6702,-6.6762,-6.692,-6.6991,-6.6946,-6.7238,-6.7147,-6.7161,-6.7169,-6.7256,-6.7286,-6.7313,-6.6956,-6.6955,-6.6953,0,0,-6.6369,-6.6412,-6.6536,-6.658,-6.6645,-6.6654,-6.6684,-6.6739,-6.6754,-6.689,-6.6845,-6.6928,-6.7078,-6.7122,-6.7165,-6.7385,-6.7346,-6.7412,-6.7529,-6.7618,-6.7644,-6.7666,-6.7743,-6.7771,-6.7429,-6.743,-6.743,0,-6.6467,-6.6613,-6.6603,-6.6713,-6.6764,-6.6714,-6.6838,-6.688,-6.6969,-6.7004,-6.6953,-6.7139,-6.7176,-6.7343,-6.7397,-6.7433,-6.7465,-6.7405,-6.7641,-6.7663,-6.7684,-6.7758,-6.7787,-6.7437,-6.7436,-6.7436,-6.7435,0,-6.6728,-6.683,-6.6922,-6.701,-6.7071,-6.7188,-6.7193,-6.7256,-6.7239,-6.7252,-6.739,-6.7433,-6.7522,-6.756,-6.7545,-6.7724,-6.7694,-6.7643,-6.7551,-6.7722,-6.7791,-6.7819,-6.7448,-6.7445,-6.7443,-6.7441,0,0,-6.6999,-6.7079,-6.7113,-6.7152,-6.722,-6.7297,-6.741,-6.7499,-6.7552,-6.7614,-6.7707,-6.7834,-6.7787,-6.7835,-6.7823,-6.7902,-6.8072,-6.784,-6.7841,-6.7881,-6.8271,-6.8309,-6.8342,-6.8047,-6.8052,-6.8056,-6.8265,0,-6.7207,-6.7407,-6.7401,-6.7586,-6.7679,-6.7632,-6.773,-6.7781,-6.7797,-6.7876,-6.7891,-6.7981,-6.7912,-6.7941,-6.8016,-6.8036,-6.815,-6.802,-6.8131,-6.8135,-6.8117,-6.8378,-6.8419,-6.8614,-6.8292,-6.8297,-6.83,0,-6.7477,-6.755,-6.7745,-6.7798,-6.7837,-6.7926,-6.8005,-6.8082,-6.8138,-6.8143,-6.8197,-6.8173,-6.8285,-6.8191,-6.8344,-6.8256,-6.83,-6.8317,-6.8324,-6.8333,-6.8228,-6.8393,-6.8676,-6.8705,-6.8342,-6.8339,-6.8336,0,-6.7654,-6.78,-6.7935,-6.797,-6.8035,-6.8099,-6.8128,-6.8179,-6.8232,-6.8301,-6.8334,-6.8415,-6.8458,-6.852,-6.8517,-6.8449,-6.8672,-6.8578,-6.8678,-6.8678,-6.8727,-6.8724,-6.902,-6.8757,-6.8757,-6.8756,-6.8756,0,-6.7887,-6.8008,-6.8015,-6.8098,-6.8232,-6.8222,-6.8353,-6.8376,-6.8422,-6.8507,-6.847,-6.8551,-6.8542,-6.8623,-6.8621,-6.8747,-6.8767,-6.8773,-6.8771,-6.8776,-6.8775,-6.8805,-6.8791,-6.8764,-6.8762,-6.8761,-6.8759,0,-6.8106,-6.8116,-6.826,-6.8311,-6.8326,-6.8422,-6.8464,-6.8542,-6.8553,-6.8661,-6.8686,-6.8704,-6.8796,-6.8799,-6.8905,-6.8904,-6.9058,-6.9041,-6.9039,-6.9036,-6.9135,-6.9126,-6.9461,-6.9503,-6.9213,-6.9216,-6.9218,0,-6.8254,-6.8346,-6.8407,-6.8462,-6.8496,-6.8585,-6.8639,-6.8632,-6.869,-6.876,-6.8829,-6.8918,-6.8989,-6.9138,-6.9159,-6.9239,-6.9223,-6.9335,-6.9235,-6.9237,-6.9224,-6.9218,-6.9227,-6.9355,-6.9358,-6.9361,-6.9363,0,-6.8515,-6.8516,-6.8596,-6.8678,-6.8743,-6.8807,-6.8866,-6.8913,-6.8912,-6.8978,-6.9073,-6.9128,-6.9237,-6.9325,-6.9403,-6.943,-6.9397,-6.9394,-6.9421,-6.9427,-6.9422,-6.9425,-6.9092,-6.9386,-6.9384,-6.9382,-6.9381,-6.938,-6.8703,-6.8782,-6.8837,-6.8927,-6.8971,-6.9026,-6.9102,-6.9123,-6.9203,-6.9291,-6.9282,-6.9387,-6.9438,-6.9539,-6.9574,-6.9654,-6.9615,-6.9655,-6.9665,-6.9675,-6.9685,-6.941,-6.9668,-6.9667,-6.9667,-6.9666,-6.9666,0,-6.8961,-6.8994,-6.9077,-6.9161,-6.9232,-6.9195,-6.9258,-6.9318,-6.9412,-6.9463,-6.9534,-6.9642,-6.9727,-6.9755,-6.9837,-6.9896,-6.9882,-6.9917,-6.9913,-6.9919,-6.9715,-6.9683,-6.9927,-6.9927,-6.9927,-6.9927,-6.9927,-6.9927,-6.9104,-6.9236,-6.9242,-6.9394,-6.9425,-6.9529,-6.9568,-6.9619,-6.966,-6.9783,-6.9854,-6.9872,-6.9913,-6.9997,-7.0073,-7.0079,-7.011,-7.0152,-7.0151,-6.996,-6.9934,-6.9909,-6.9878,-7.0159,-7.0159,-7.0348,-7.0349,-7.0351]}]]